Albert Lea, MN

1:29 AM CST on November 21, 2017 (GMT -0600)
Albert Lea Municipal

Weather History for KAEL - September, 2012

Change the Weather History Date:

Wednesday, September 5, 2012

  Actual Average Record
Temperature  
Mean Temperature 68 °F -  
Max Temperature 80 °F 75 °F 87 °F (2005)
Min Temperature 55 °F 54 °F 42 °F (2011)
Cooling Degree Days 2    
Growing Degree Days 18 (Base 50)    
Moisture  
Dew Point 54 °F    
Average Humidity 70    
Maximum Humidity 100    
Minimum Humidity 34    
Precipitation  
Precipitation 0.29 in - - ()
Sea Level Pressure  
Sea Level Pressure 29.86 in    
Wind  
Wind Speed 8 mph (NW)    
Max Wind Speed 25 mph    
Max Gust Speed 48 mph    
Visibility 10 miles    
Events Rain , Thunderstorm    
Averages and records for this station are not official NWS values.
T = Trace of Precipitation, MM = Missing Value Source: NWS Daily Summary

Daily Weather History Graph

Daily Weather History Graph

Search for Another Location

Airport or City:

Trip Planner

Search our weather history database for the weather conditions in past years. The results will help you decide how hot, cold, wet, or windy it might be!

Date:

Astronomy

Sep. 05, 2012 Rise Set
Actual Time 6:42 AM CDT 7:40 PM CDT
Civil Twilight 6:12 AM CDT 8:10 PM CDT
Nautical Twilight 5:37 AM CDT 8:45 PM CDT
Astronomical Twilight 5:01 AM CDT 9:21 PM CDT
Moon 9:59 PM CDT (9/5) 11:58 AM CDT (9/5)
Length of Visible Light 13h 57m
Length of Day
12h 58m
Waning Gibbous, 76% of the Moon is Illuminated
Sep 5
Waning Gibbous
Sep 8
Last Quarter
Sep 15
New
Sep 22
First Quarter
Sep 29
Full

Hourly Weather History & Observations

Time (CDT) Temp. Dew Point Humidity Pressure Visibility Wind Dir Wind Speed Gust Speed Precip Events Conditions
12:14 AM 62.6 °F 59.0 °F 88% 29.92 in 2.5 mi WNW 25.3 mph 48.3 mph 0.15 in Rain , Thunderstorm Heavy Thunderstorms and Rain
12:34 AM 57.2 °F 57.2 °F 100% 29.90 in 10.0 mi NW 18.4 mph 32.2 mph 0.35 in Rain , Thunderstorm Thunderstorms and Rain
12:54 AM 57.2 °F 57.2 °F 100% 29.94 in 10.0 mi WNW 4.6 mph 17.3 mph 0.05 in Rain , Thunderstorm Heavy Thunderstorms and Rain
1:14 AM 57.2 °F 57.2 °F 100% 29.95 in 5.0 mi Calm Calm - 0.15 in Rain , Thunderstorm Heavy Thunderstorms and Rain
1:34 AM 59.0 °F 57.2 °F 94% 29.92 in 10.0 mi SSW 6.9 mph - 0.22 in Rain Rain
1:54 AM 59.0 °F 57.2 °F 94% 29.89 in 10.0 mi SSE 8.1 mph - N/A Rain Light Rain
2:14 AM 59.0 °F 57.2 °F 94% 29.86 in 10.0 mi ESE 10.4 mph - 0.01 in Rain Light Rain
2:34 AM 57.2 °F 57.2 °F 100% 29.78 in 10.0 mi ESE 15.0 mph 24.2 mph 0.02 in Rain Light Rain
2:54 AM 57.2 °F 55.4 °F 94% 29.72 in 10.0 mi ESE 16.1 mph 23.0 mph N/A Rain Light Rain
3:14 AM 57.2 °F 57.2 °F 100% 29.75 in 10.0 mi ENE 4.6 mph - N/A   Clear
3:34 AM 57.2 °F 57.2 °F 100% 29.77 in 10.0 mi NE 5.8 mph - N/A   Clear
3:54 AM 57.2 °F 57.2 °F 100% 29.79 in 10.0 mi Calm Calm - N/A   Clear
4:14 AM 57.2 °F 57.2 °F 100% 29.79 in 10.0 mi ESE 4.6 mph - N/A   Clear
4:34 AM 57.2 °F 57.2 °F 100% 29.81 in 10.0 mi Calm Calm - N/A   Clear
4:54 AM 57.2 °F 57.2 °F 100% 29.81 in 10.0 mi SE 3.5 mph - N/A   Clear
5:14 AM 57.2 °F 57.2 °F 100% 29.81 in 10.0 mi Calm Calm - N/A   Clear
5:34 AM 57.2 °F 57.2 °F 100% 29.81 in 10.0 mi Calm Calm - N/A   Clear
5:53 AM 57.2 °F 57.2 °F 100% 29.81 in 10.0 mi SE 3.5 mph - N/A   Clear
6:14 AM 57.2 °F 55.4 °F 94% 29.82 in 10.0 mi South 3.5 mph - N/A   Clear
6:33 AM 57.2 °F 55.4 °F 94% 29.83 in 10.0 mi Calm Calm - N/A   Clear
6:54 AM 57.2 °F 55.4 °F 94% 29.83 in 10.0 mi NNE 5.8 mph - N/A   Clear
7:14 AM 55.4 °F 55.4 °F 100% 29.83 in 10.0 mi Calm Calm - N/A   Clear
7:33 AM 57.2 °F 57.2 °F 100% 29.84 in 7.0 mi Calm Calm - N/A   Clear
7:54 AM 57.2 °F 55.4 °F 94% 29.84 in 10.0 mi Calm Calm - N/A   Clear
8:14 AM 59.0 °F 57.2 °F 94% 29.85 in 10.0 mi Calm Calm - N/A   Clear
8:33 AM 60.8 °F 57.2 °F 88% 29.85 in 10.0 mi Calm Calm - N/A   Clear
8:54 AM 62.6 °F 57.2 °F 82% 29.85 in 10.0 mi Calm Calm - N/A   Clear
9:14 AM 62.6 °F 57.2 °F 82% 29.85 in 10.0 mi WNW 3.5 mph - N/A   Clear
9:34 AM 64.4 °F 57.2 °F 77% 29.86 in 10.0 mi WNW 3.5 mph - N/A   Clear
9:54 AM 64.4 °F 57.2 °F 77% 29.85 in 10.0 mi WNW 3.5 mph - N/A   Scattered Clouds
10:13 AM 66.2 °F 57.2 °F 73% 29.86 in 10.0 mi WNW 4.6 mph - N/A   Scattered Clouds
10:34 AM 66.2 °F 59.0 °F 78% 29.85 in 10.0 mi West 5.8 mph - N/A   Clear
10:53 AM 68.0 °F 59.0 °F 73% 29.85 in 10.0 mi NW 4.6 mph - N/A   Clear
11:14 AM 69.8 °F 59.0 °F 68% 29.85 in 10.0 mi NW 3.5 mph - N/A   Clear
11:34 AM 69.8 °F 59.0 °F 68% 29.85 in 10.0 mi West 5.8 mph - N/A   Clear
11:53 AM 71.6 °F 60.8 °F 69% 29.85 in 10.0 mi WNW 5.8 mph - N/A   Clear
12:14 PM 71.6 °F 60.8 °F 69% 29.84 in 10.0 mi West 3.5 mph - N/A   Clear
12:34 PM 75.2 °F 59.0 °F 57% 29.84 in 10.0 mi North 5.8 mph - N/A   Clear
12:53 PM 77.0 °F 57.2 °F 50% 29.84 in 10.0 mi NNW 5.8 mph - N/A   Clear
1:14 PM 75.2 °F 55.4 °F 50% 29.83 in 10.0 mi NW 5.8 mph - N/A   Clear
1:34 PM 77.0 °F 55.4 °F 47% 29.84 in 10.0 mi NNW 8.1 mph - N/A   Clear
1:54 PM 78.8 °F 55.4 °F 44% 29.84 in 10.0 mi WNW 8.1 mph - N/A   Clear
2:14 PM 78.8 °F 51.8 °F 39% 29.84 in 10.0 mi NW 5.8 mph - N/A   Clear
2:33 PM 78.8 °F 51.8 °F 39% 29.84 in 10.0 mi NNW 9.2 mph - N/A   Clear
2:54 PM 78.8 °F 51.8 °F 39% 29.84 in 10.0 mi WNW 10.4 mph - N/A   Clear
3:14 PM 80.6 °F 51.8 °F 37% 29.84 in 10.0 mi NW 10.4 mph 19.6 mph N/A   Clear
3:33 PM 80.6 °F 51.8 °F 37% 29.84 in 10.0 mi NW 8.1 mph - N/A   Clear
3:54 PM 78.8 °F 53.6 °F 42% 29.84 in 10.0 mi NW 8.1 mph - N/A   Clear
4:14 PM 78.8 °F 51.8 °F 39% 29.85 in 10.0 mi NW 10.4 mph 18.4 mph N/A   Clear
4:33 PM 78.8 °F 51.8 °F 39% 29.85 in 10.0 mi NNW 10.4 mph 18.4 mph N/A   Scattered Clouds
5:13 PM 78.8 °F 50.0 °F 36% 29.86 in 10.0 mi NNW 6.9 mph - N/A   Scattered Clouds
5:34 PM 78.8 °F 48.2 °F 34% 29.86 in 10.0 mi NW 9.2 mph 16.1 mph N/A   Scattered Clouds
5:54 PM 78.8 °F 48.2 °F 34% 29.86 in 10.0 mi WNW 9.2 mph - N/A   Clear
6:13 PM 77.0 °F 50.0 °F 39% 29.87 in 10.0 mi WNW 5.8 mph - N/A   Clear
6:34 PM 75.2 °F 51.8 °F 44% 29.87 in 10.0 mi WNW 5.8 mph - N/A   Clear
6:54 PM 75.2 °F 50.0 °F 41% 29.87 in 10.0 mi NW 4.6 mph - N/A   Clear
7:13 PM 73.4 °F 50.0 °F 44% 29.88 in 10.0 mi NW 3.5 mph - N/A   Clear
7:34 PM 71.6 °F 51.8 °F 50% 29.89 in 10.0 mi WNW 3.5 mph - N/A   Clear
7:54 PM 69.8 °F 50.0 °F 49% 29.89 in 10.0 mi NW 4.6 mph - N/A   Clear
8:13 PM 68.0 °F 50.0 °F 52% 29.90 in 10.0 mi WNW 4.6 mph - N/A   Clear
8:34 PM 66.2 °F 50.0 °F 56% 29.90 in 10.0 mi WNW 3.5 mph - N/A   Clear
8:54 PM 64.4 °F 48.2 °F 56% 29.91 in 10.0 mi WNW 4.6 mph - N/A   Clear
9:13 PM 64.4 °F 48.2 °F 56% 29.92 in 10.0 mi WNW 4.6 mph - N/A   Clear
9:34 PM 62.6 °F 48.2 °F 59% 29.92 in 10.0 mi Calm Calm - N/A   Clear
9:54 PM 60.8 °F 48.2 °F 63% 29.92 in 10.0 mi Calm Calm - N/A   Clear
10:14 PM 62.6 °F 46.4 °F 55% 29.92 in 10.0 mi NNW 4.6 mph - N/A   Clear
10:34 PM 62.6 °F 46.4 °F 55% 29.92 in 10.0 mi NNW 4.6 mph - N/A   Clear
10:53 PM 60.8 °F 46.4 °F 59% 29.92 in 10.0 mi NNW 5.8 mph - N/A   Clear
11:14 PM 60.8 °F 46.4 °F 59% 29.92 in 10.0 mi NNW 4.6 mph - N/A   Clear
11:33 PM 59.0 °F 46.4 °F 63% 29.93 in 10.0 mi NNW 3.5 mph - N/A   Clear
11:54 PM 57.2 °F 48.2 °F 72% 29.93 in 10.0 mi Calm Calm - N/A   Clear